Aérodrome :
LOGIN :

S'inscrire | Disclaimer

   EN    FR    IT 

 










Légende :    VFR   VFR Marginal   IFR   IFR Intensif   IFR Très Intensif
Visi : 
Plafond : 
>= 8 km
>= 3000ft
5 à 8 km
1000 à 3000 ft
1500m à 5 km
500 à 1000 ft
800 à 1500m
200 à 500 ft
< 800m
< 200 ft
Symboles :   Orages  Brouillard  Fortes neiges  Fortes précipitations  Vent > 20 kt
SIGMETs :   Divers  Orages  Givrage  Turbulence  Onde Orograph.  Cendres Volcan.







- Altitude de l'aérodrome : 1300 ft
- Code IATA : LIG
- Voir les cartes d'approche


LFBL - Limoges

DERNIER METAR :
  • 221600Z AUTO 15008KT CAVOK 13/03 Q1009 NOSIG

METARs EXPIRÉS :
  • 221530Z AUTO 15006KT CAVOK 15/03 Q1010 NOSIG
  • 221500Z AUTO 14008KT CAVOK 15/04 Q1010 NOSIG
  • 221430Z AUTO 16009KT CAVOK 15/04 Q1010 NOSIG
  • 221400Z AUTO 16010KT CAVOK 16/02 Q1010 NOSIG
  • 221330Z AUTO 17013KT CAVOK 16/03 Q1010 NOSIG

TAF TAF LFBL
Valide du 22 à 12h jusqu'au 23 à 12h UTC


221100Z 2212/2312 16012KT CAVOK
BECMG 2309/2311 20012KT BKN023
ATIS : +33 5 55 48 40 37
Pas de NOTAMs connus pour ce terrain.



MET'MAP, la Météo Aéronautique d'un coup d'oeil ! - Copyright ORBIFLY Décembre 2007 - Disclaimer

ORBIFLY MET'MAP TEAM :

Programmation & Développement : Alexandra Zaïnal
Conception & Développement : Baudouin d'Aumeries
Co-Programmation & Développement : Marc-Olivier Méhu
Soutien technique & logistique : Manuel Goepfert

Contact : metmap@orbifly.com




SOURCES & CREDITS :

   NOAA